Location: *
(49.4547°N, 7.9131°E)
Time: 14:16:39
(UTC+00:00)

MetOp-A - Pass Details

Date: 22 September 2019
Orbit: 820 x 821 km, 98.6° (Epoch: 14 October)

Event Time Altitude Azimuth Distance (km) Brightness Sun altitude
Exits shadow 19:55:15 41° 178° (S) 1,181 4.7 -23.7°
Maximum altitude 19:57:12 77° 256° (WSW) 848 4.2 -24.0°
Drops below altitude 10° 20:02:35 10° 343° (NNW) 2,429 7.2 -24.8°
Sets 20:04:57 0° 345° (NNW) 3,366 8.0 -25.1°
